EW7952 Weather Reports


Display with metric or nautical units.
time (UTC)temp
F
wind
direction
speed
MPH
gust
MPH
rain 1hr
in
rain 24hr
in
rain mn
in
humidity
%
barometer
mb
20260506231213 51 22 0.0 0.0 0.00 0.39 0.00 92 7.8
20260506230212 52 270 0.0 0.0 0.00 0.39 0.00 92 7.7
20260506224215 52 225 0.0 0.0 0.00 0.39 0.00 92 7.8
20260506223214 52 225 0.0 0.0 0.04 0.39 0.00 92 7.8
20260506222213 53 247 0.0 0.0 0.04 0.39 0.00 91 7.8
20260506221211 53 247 0.0 0.0 0.06 0.39 0.00 91 7.9
20260506220211 53 337 0.0 0.0 0.08 0.39 0.39 91 7.7
20260506215211 53 337 0.0 0.0 0.08 0.39 0.39 92 7.9
20260506214215 53 247 0.0 0.0 0.10 0.39 0.39 92 7.9
20260506212213 53 292 0.0 0.0 0.06 0.35 0.35 91 7.9
20260506211213 53 202 0.0 0.0 0.06 0.33 0.33 91 7.7
20260506210211 54 67 0.0 0.0 0.04 0.31 0.31 91 7.6
20260506205211 53 202 0.0 0.0 0.06 0.31 0.31 91 7.7
20260506204216 53 270 0.0 0.0 0.04 0.28 0.28 91 7.7
20260506203214 53 225 0.0 0.0 0.04 0.28 0.28 90 7.7
20260506201213 53 337 0.0 0.0 0.02 0.26 0.26 89 7.6
20260506200213 54 67 0.0 0.0 0.02 0.26 0.26 89 7.4
20260506195212 54 112 0.0 0.0 0.00 0.49 0.24 89 7.3
20260506193215 53 22 1.0 1.0 0.00 0.49 0.24 89 7.0
20260506192214 54 337 0.0 0.0 0.00 0.49 0.24 89 6.9
20260506191214 54 292 0.0 0.0 0.00 0.49 0.24 88 6.7
20260506185211 54 315 0.0 0.0 0.00 0.90 0.24 86 6.2
20260506184211 55 225 2.0 2.0 0.00 0.90 0.24 86 6.0
20260506183210 55 247 0.0 0.0 0.00 0.90 0.24 85 6.0
20260506182214 56 270 0.0 0.0 0.00 0.90 0.24 84 5.9
20260506181214 56 225 0.0 0.0 0.00 0.90 0.24 83 5.7
20260506180213 57 337 0.0 0.0 0.00 0.90 0.24 79 5.8
20260506175212 58 202 4.0 4.0 0.00 0.92 0.24 75 5.9
20260506174212 59 292 0.0 0.0 0.00 0.92 0.24 71 5.9
20260506172211 61 247 3.0 3.0 0.00 0.92 0.24 65 5.7
20260506044209 52 135 0.0 0.0 0.00 2.04 0.08 94 5.6
20260506043215 52 157 0.0 0.0 0.00 2.04 0.08 94 5.5
20260506042215 52 225 0.0 0.0 0.00 2.04 0.08 94 5.5
20260506041214 52 225 0.0 0.0 0.00 2.04 0.08 94 5.5
20260506040214 52 270 0.0 0.0 0.00 2.04 0.08 94 5.4
20260506034213 52 202 0.0 0.0 0.00 2.04 0.08 94 5.4
20260506033213 52 202 0.0 0.0 0.00 2.04 0.08 94 5.6
20260506032212 52 202 0.0 0.0 0.00 2.04 0.08 94 5.7
20260506031211 65 360 6.0 6.0 0.00 2.04 1.95 71 8.0
20260506030211 52 202 0.0 0.0 0.00 0.98 0.08 94 5.6
20260506025215 52 225 0.0 0.0 0.00 0.98 0.08 94 5.8
20260506024215 52 337 0.0 0.0 0.00 0.98 0.08 94 5.8
20260506023215 52 247 0.0 0.0 0.00 0.98 0.08 94 5.9
20260506022214 52 315 0.0 0.0 0.00 0.98 0.08 94 6.0
20260506021213 52 22 0.0 0.0 0.00 0.98 0.08 94 6.0
20260506020213 52 360 0.0 0.0 0.00 1.00 0.08 94 6.1
20260506015213 52 22 0.0 0.0 0.00 1.00 0.08 94 6.0
20260506014213 52 67 0.0 0.0 0.00 1.00 0.08 94 6.1
20260506013212 52 45 0.0 0.0 0.00 1.00 0.08 94 6.1
20260506012212 53 315 0.0 0.0 0.00 1.00 0.08 94 6.2
20260506011211 53 225 0.0 0.0 0.00 1.00 0.08 94 6.2
20260506010215 53 247 0.0 0.0 0.00 1.00 0.08 94 6.3
20260506005215 53 247 0.0 0.0 0.00 1.00 0.08 94 6.3
20260506004215 53 247 0.0 0.0 0.00 1.00 0.08 94 6.3
20260506003214 53 247 0.0 0.0 0.00 1.00 0.08 94 6.3
20260506002214 53 270 0.0 0.0 0.00 1.00 0.08 93 6.2
20260506001213 53 225 0.0 0.0 0.02 1.00 0.08 93 6.3
20260506000212 53 225 0.0 0.0 0.02 1.00 0.08 93 6.4
20260505235212 53 180 0.0 0.0 0.02 1.00 0.08 93 6.5
20260505232214 53 135 0.0 0.0 0.04 1.00 0.08 93 6.7